Location: Unspecified
(0.0000°N, 0.0000°E)
Time: 20:19:36
(UTC+02:00)

Resurs 01 Rocket - Visible Passes

Search period start: 28 July 2016 00:00
Search period end: 07 August 2016 00:00
Orbit: 634 x 645 km, 98.2° (Epoch: 28 July)

Date Brightness Start Highest point End Pass type
(mag) Time Alt. Az. Time Alt. Az. Time Alt. Az.
28 Jul 3.0 20:34:04 10° ESE 20:37:12 19° ENE 20:40:20 10° NNE visible
28 Jul 4.1 22:10:26 10° SW 22:13:25 18° WSW 22:16:23 10° WNW visible
29 Jul 2.1 20:56:23 10° SSE 21:00:31 40° ENE 21:04:37 10° N visible
30 Jul 1.5 21:19:50 13° SSE 21:23:49 89° E 21:28:13 10° NNW visible
31 Jul 2.8 21:43:29 13° S 21:47:08 41° WSW 21:51:16 10° NNW visible
01 Aug 3.2 20:31:20 10° ESE 20:34:13 17° ENE 20:37:06 10° NE visible
01 Aug 4.0 22:07:13 10° SSW 22:10:26 20° WSW 22:13:38 10° NW visible
02 Aug 2.2 20:53:30 10° SE 20:57:32 36° ENE 21:01:33 10° NNE visible
03 Aug 1.5 21:16:50 12° SSE 21:20:51 79° ENE 21:25:13 10° N visible
04 Aug 2.5 21:40:29 13° S 21:44:09 46° WSW 21:48:21 10° NNW visible
05 Aug 3.3 20:28:39 10° ESE 20:31:15 15° ENE 20:33:50 10° NE visible
05 Aug 3.9 22:04:08 10° SSW 22:07:27 22° WSW 22:10:51 10° NW visible
06 Aug 2.4 20:50:38 10° SE 20:54:33 32° ENE 20:58:27 10° NNE visible
06 Aug 4.7 22:30:02 10° WSW 22:30:44 10° WSW 22:31:26 10° W visible
